Regional Weather Roundup
Issued by NWS

Home | Current Version | Previous Version | Text Only | Print | Product List | Glossary On
Versions: 1 2 3 4 5 6 7 8 9 10 11 12 13 14 15 16 17 18 19 20 21 22 23 24 25 26 27 28 29 30 31 32 33 34 35 36 37 38 39 40 41 42 43 44 45 46 47 48 49 50
000
ASUS42 KKEY 080910
RWRKEY

FLORIDA REGIONAL WEATHER ROUNDUP FOR THE FLORIDA KEYS
NATIONAL WEATHER SERVICE KEY WEST FLORIDA
400 AM EST MON FEB 08 2016

...SOUTH FLORIDA AND THE KEYS...

CITY           SKY/WX    TMP DP  RH WIND       PRES   REMARKS
FORT MYERS     PTCLDY    44  41  89 CALM      30.06F
SW REGIONAL AP PTCLDY    47  40  76 CALM      30.07F
NAPLES         CLEAR     46  42  86 E3        30.07F
MIAMI          PTCLDY    51  37  58 NW6       30.07F
WEST KENDALL   CLEAR     48  39  71 N9        30.07F WCI  44
HOMESTEAD      PTCLDY    47  40  78 NW3       30.07S
MARATHON       CLEAR     57  49  74 NE10      30.07S
BOCA CHICA NAS PTCLDY    61  47  59 NW12      30.07F
KEY WEST INTL  PTCLDY    61  50  67 N9        30.07F

...INTERNATIONAL WEATHER...

CITY           SKY/WX    TMP DP  RH WIND       PRES   REMARKS
NASSAU BAHAMAS NOT AVBL
CANCUN MEXICO  PTCLDY    55  54  94 NW7       30.09F
COZUMEL MEXICO PTCLDY    63  57  82 NW13      30.10S

ADJACENT COASTAL WATERS...

STATION/POSITION TIME  SKY/WX   TEMP    WIND        PRES    WAVE
                                AIR SEA DIR/SP/G            HT/PER
                 (UTC)          (F)     (DEG/KT/KT) (MB)    (FT/S)
PULASKI SHOAL LI NOT AVBL
SAND KEY         0850            62     350/ 15/ 21 1018.6F
SOMBRERO KEY     NOT AVBL
LONG KEY         0900            56 64   20/ 13/ 14 1019.0F
MOLASSES REEF    0900            55 75  360/ 15/ 16 1018.1R
FOWEY ROCKS      NOT AVBL

$$



USA.gov is the U.S. government's official web portal to all federal, state and local government web resources and services.